Location: Home
(42.5358°N, 72.7383°W)
Time: 08:59:03
(UTC-05:00)

Vanguard 2 - Pass Details

Date: 29 November 2021
Orbit: 553 x 2936 km, 32.9° (Epoch: 21 January)

Event Time Altitude Azimuth Distance (km) Brightness Sun altitude
Rises 20:01:43 0° 270° (W) 4,870 12.5 -40.4°
Reaches altitude 10° 20:05:12 10° 258° (WSW) 4,219 11.9 -41.0°
Maximum altitude 20:14:39 27° 207° (SSW) 3,744 11.0 -42.7°
Enters shadow 20:21:16 21° 174° (S) 4,539 11.2 -43.9°
Drops below altitude 10° 20:27:09 10° 158° (SSE) 5,614 - -45.0°
Sets 20:32:51 0° 148° (SSE) 6,756 - -46.0°
